HG-01

operational
NORAD ID: 59069 Int'l Des: 2024-040 Owner: CNSA Country: CN
HEOCIRCULARGSOGEO

HG-01について

説明を読み込み中...

リアルタイム位置

3D地球を読み込み中...

次回通過

高度履歴

Altitude vs Time

uPlot chart will show altitude changes over time

軌道要素

1 59069U 24040A 26062.09398661 .00000140 00000-0 00000+0 0 9991
2 59069 0.0592 318.3175 0004346 38.3779 231.6831 1.00273437 6264
Epoch: Mar 3, 2026 • Age: 12 hours

現在のステータス

高度 35767.7 km
速度 3.08 km/s
衛星直下点 0.03°N, 33.71°E
打ち上げ日 Feb 29, 2024
運用期間 2 years
タイプ other

技術仕様

分類 Payload
質量 4000.00 kg
乾燥質量 2000.00 kg
総質量 4000.00 kg
長さ 3.00 m
直径 2.00 m
スパン 20.00 m
形状 Box + 2 Pan
製造者 CAST
バスタイプ DFH-4
フェーズステータス In Orbit
所有者/国 CNSA/CN

大規模コンステレーション

Loading constellations...